DW1114 Weather Reports


Display with metric or nautical units.
time (UTC)temp
F
wind
direction
speed
MPH
gust
MPH
rain 1hr
in
rain 24hr
in
rain mn
in
humidity
%
barometer
mb
20260506001404 59 195 0.0 6.0 0.00 0.00 0.00 1006.8
20260506000945 60 205 0.0 5.0 0.00 0.00 0.00 1007.1
20260506000403 59 189 2.0 5.0 0.00 0.00 0.00 1007.1
20260505235903 60 210 2.0 6.0 0.00 0.00 0.00 1007.1
20260505235403 60 196 2.0 6.0 0.00 0.00 0.00 1007.1
20260505233903 60 192 2.0 3.0 0.00 0.00 0.00 1007.5
20260505233403 60 202 2.0 3.0 0.00 0.00 0.00 1007.5
20260505232902 60 214 0.0 3.0 0.00 0.00 0.00 1006.5
20260505232403 60 197 2.0 4.0 0.00 0.00 0.00 1006.8
20260505231903 60 203 2.0 5.0 0.00 0.00 0.00 1007.5
20260505231403 60 193 2.0 5.0 0.00 0.00 0.00 1007.5
20260505230903 60 169 2.0 4.0 0.00 0.00 0.00 1007.1
20260505230403 60 188 1.0 7.0 0.00 0.00 0.00 1006.8
20260505225903 60 205 2.0 7.0 0.00 0.00 0.00 1007.1
20260505225403 60 198 1.0 3.0 0.00 0.00 0.00 1007.8
20260505224904 60 210 1.0 4.0 0.00 0.00 0.00 1007.8
20260505224403 60 189 2.0 4.0 0.00 0.00 0.00 1008.5
20260505223903 60 188 1.0 5.0 0.00 0.00 0.00 1007.8
20260505222903 60 189 2.0 6.0 0.00 0.00 0.00 1007.8
20260505222403 60 201 2.0 6.0 0.00 0.00 0.00 1007.8
20260505221903 60 213 1.0 6.0 0.00 0.00 0.00 1007.8
20260505221403 60 203 2.0 7.0 0.00 0.00 0.00 1008.2
20260505220903 60 175 0.0 7.0 0.00 0.00 0.00 1007.5
20260505220403 60 206 1.0 5.0 0.00 0.00 0.00 1007.5
20260505215903 60 188 2.0 5.0 0.00 0.00 0.00 1007.5
20260505215403 60 198 1.0 5.0 0.00 0.00 0.00 1007.8
20260505214903 60 184 1.0 3.0 0.00 0.00 0.00 1007.5
20260505214403 60 206 1.0 3.0 0.00 0.00 0.00 1007.8
20260505213903 60 218 1.0 4.0 0.00 0.00 0.00 1007.8
20260505213424 60 198 2.0 4.0 0.00 0.00 0.00 1007.8
20260505212903 60 196 1.0 4.0 0.00 0.00 0.00 1007.8
20260505212424 60 206 1.0 6.0 0.00 0.00 0.00 1007.8
20260505211903 60 204 2.0 6.0 0.00 0.00 0.00 1007.8
20260505211403 60 205 1.0 4.0 0.00 0.00 0.00 1008.2
20260505210903 60 197 2.0 7.0 0.00 0.00 0.00 1007.5
20260505210402 60 201 4.0 7.0 0.00 0.00 0.00 1007.5
20260505205903 60 234 3.0 9.0 0.00 0.00 0.00 1007.5
20260505205402 60 248 1.0 9.0 0.00 0.00 0.00 1008.2
20260505204903 60 192 1.0 7.0 0.00 0.00 0.00 1007.8
20260505204404 60 236 2.0 7.0 0.00 0.00 0.00 1008.2
20260505203903 60 194 3.0 5.0 0.00 0.00 0.00 1008.2
20260505203403 60 231 0.0 6.0 0.00 0.00 0.00 1007.5
20260505202903 61 217 1.0 6.0 0.00 0.00 0.00 1007.8
20260505201403 61 239 1.0 7.0 0.00 0.00 0.00 1008.2
20260505200904 61 220 3.0 8.0 0.00 0.00 0.00 1008.2
20260505200403 61 219 3.0 17.0 0.00 0.00 0.00 1007.8
20260505195924 62 209 1.0 17.0 0.00 0.00 0.00 1008.2
20260505195402 63 257 3.0 9.0 0.00 0.00 0.00 1008.5
20260505194903 64 273 4.0 8.0 0.00 0.00 0.00 1008.2
20260505194403 65 252 0.0 9.0 0.00 0.00 0.00 1007.8
20260505193924 66 266 3.0 9.0 0.00 0.00 0.00 1008.2
20260505193403 66 246 2.0 4.0 0.00 0.00 0.00 1008.2
20260505192903 66 242 2.0 4.0 0.00 0.00 0.00 1007.5
20260505192403 66 198 1.0 5.0 0.00 0.00 0.00 1007.5
20260505191924 66 193 2.0 5.0 0.00 0.00 0.00 1008.5
20260505191424 66 200 2.0 5.0 0.00 0.00 0.00 1007.8
20260505190903 66 202 2.0 5.0 0.00 0.00 0.00 1007.8
20260505190403 66 236 1.0 5.0 0.00 0.00 0.00 1007.8
20260505185903 66 203 2.0 5.0 0.00 0.00 0.00 1007.8
20260505185403 66 192 3.0 6.0 0.00 0.00 0.00 1007.8
20260505184903 66 210 3.0 9.0 0.00 0.00 0.00 1007.8
20260505184404 66 199 3.0 9.0 0.00 0.00 0.00 1007.8
20260505183903 67 184 3.0 6.0 0.00 0.00 0.00 1008.2
20260505183403 67 192 3.0 8.0 0.00 0.00 0.00 1007.8
20260505182903 67 192 4.0 8.0 0.00 0.00 0.00 1008.8
20260505182403 67 228 4.0 10.0 0.00 0.00 0.00 1008.2
20260505181904 67 199 3.0 10.0 0.00 0.00 0.00 1008.2
20260505181403 67 176 4.0 9.0 0.00 0.00 0.00 1008.5
20260505180903 67 196 3.0 9.0 0.00 0.00 0.00 1008.2
20260505180424 67 207 4.0 8.0 0.00 0.00 0.00 1008.2
20260505175924 66 208 2.0 5.0 0.00 0.00 0.00 1008.5
20260505175403 66 210 2.0 6.0 0.00 0.00 0.00 1008.5
20260505174903 66 208 3.0 6.0 0.00 0.00 0.00 1009.2
20260505174402 66 196 1.0 15.0 0.00 0.00 0.00 1009.2
20260505173903 65 215 4.0 15.0 0.00 0.00 0.00 1008.5
20260505173404 66 196 4.0 7.0 0.00 0.00 0.00 1008.5
20260505172903 66 200 4.0 7.0 0.00 0.00 0.00 1008.5
20260505172403 66 211 3.0 7.0 0.00 0.00 0.00 1009.2
20260505171904 66 206 3.0 7.0 0.00 0.00 0.00 1008.8
20260505171403 66 207 3.0 7.0 0.00 0.00 0.00 1008.8
20260505170903 66 202 3.0 7.0 0.00 0.00 0.00 1008.8
20260505170403 66 208 2.0 7.0 0.00 0.00 0.00 1008.8
20260505165903 66 199 3.0 7.0 0.00 0.00 0.00 1008.8
20260505165424 66 202 3.0 7.0 0.00 0.00 0.00 1008.8
20260505164903 66 208 3.0 11.0 0.00 0.00 0.00 1008.5
20260505164425 66 193 4.0 11.0 0.00 0.00 0.00 1008.5
20260505163924 67 200 5.0 9.0 0.00 0.00 0.00 1008.5
20260505163403 67 203 4.0 7.0 0.00 0.00 0.00 1009.2
20260505162902 67 213 3.0 8.0 0.00 0.00 0.00 1008.8
20260505162403 67 244 2.0 9.0 0.00 0.00 0.00 1009.2
20260505161902 67 210 4.0 11.0 0.00 0.00 0.00 1009.2
20260505161445 67 205 4.0 11.0 0.00 0.00 0.00 1009.2
20260505160903 68 205 4.0 10.0 0.00 0.00 0.00 1008.8
20260505160425 68 207 3.0 9.0 0.00 0.00 0.00 1008.8
20260505152903 66 196 5.0 9.0 0.00 0.00 0.00 1008.8
20260505152403 66 203 4.0 8.0 0.00 0.00 0.00 1008.5
20260505151903 66 216 3.0 8.0 0.00 0.00 0.00 1008.5
20260505151403 67 274 0.0 17.0 0.00 0.00 0.00 1008.5
20260505150902 66 207 4.0 17.0 0.00 0.00 0.00 1008.8
20260505150403 66 216 3.0 6.0 0.00 0.00 0.00 1009.2
20260505140403 62 201 2.0 5.0 0.00 0.00 0.00 1007.8
20260505124902 57 190 2.0 7.0 0.00 0.00 0.00 1007.8
20260505124403 57 197 3.0 7.0 0.00 0.00 0.00 1008.2
20260505123903 57 184 3.0 6.0 0.00 0.00 0.00 1008.2
20260505123403 57 202 4.0 6.0 0.00 0.00 0.00 1007.8
20260505122903 57 199 3.0 6.0 0.00 0.00 0.00 1007.5
20260505122403 56 194 3.0 6.0 0.00 0.00 0.00 1008.2
20260505121903 56 203 3.0 5.0 0.00 0.00 0.00 1008.2
20260505121404 56 204 3.0 7.0 0.00 0.00 0.00 1007.8
20260505120903 56 193 2.0 7.0 0.00 0.00 0.00 1007.8
20260505120403 56 200 3.0 5.0 0.00 0.00 0.00 1007.8
20260505115903 56 207 4.0 5.0 0.00 0.00 0.00 1007.5
20260505115403 56 198 3.0 5.0 0.00 0.00 0.00 1007.8
20260505114903 56 200 3.0 5.0 0.00 0.00 0.00 1007.5
20260505114424 56 201 1.0 3.0 0.00 0.00 0.00 1007.5
20260505113903 56 192 1.0 3.0 0.00 0.00 0.00 1007.5
20260505113403 55 210 0.0 4.0 0.00 0.00 0.00 1007.5
20260505112924 55 192 2.0 4.0 0.00 0.00 0.00 1007.1
20260505112403 55 179 1.0 5.0 0.00 0.00 0.00 1006.8
20260505111924 55 181 2.0 5.0 0.00 0.00 0.00 1006.5
20260505111403 55 190 3.0 5.0 0.00 0.00 0.00 1006.5
20260505110903 55 191 3.0 5.0 0.00 0.00 0.00 1007.1
20260505110403 55 197 3.0 4.0 0.00 0.00 0.00 1006.8
20260505101903 56 221 0.0 6.0 0.00 0.00 0.00 1008.2
20260505101403 56 271 3.0 6.0 0.00 0.00 0.00 1007.8
20260505100903 56 262 0.0 5.0 0.00 0.00 0.00 1007.8
20260505100403 56 270 3.0 10.0 0.00 0.00 0.00 1008.5
20260505095903 56 282 5.0 10.0 0.00 0.00 0.00 1007.8
20260505095403 57 282 3.0 8.0 0.00 0.00 0.00 1008.2
20260505094903 57 254 2.0 8.0 0.00 0.00 0.00 1007.8
20260505094403 57 269 1.0 8.0 0.00 0.00 0.00 1007.8
20260505093903 57 256 3.0 11.0 0.00 0.00 0.00 1008.8
20260505093403 58 254 3.0 11.0 0.00 0.00 0.00 1008.5
20260505092924 57 276 2.0 11.0 0.00 0.00 0.00 1008.2
20260505092403 58 293 3.0 11.0 0.00 0.00 0.00 1008.2
20260505091924 58 279 4.0 6.0 0.00 0.00 0.00 1008.5
20260505091403 58 281 2.0 9.0 0.00 0.00 0.00 1008.5
20260505090903 59 289 5.0 9.0 0.00 0.00 0.00 1007.8
20260505090403 60 279 4.0 10.0 0.00 0.00 0.00 1007.8
20260505085903 60 293 5.0 10.0 0.00 0.00 0.00 1008.5
20260505085424 60 311 3.0 8.0 0.00 0.00 0.00 1007.8
20260505084903 61 309 5.0 7.0 0.00 0.00 0.00 1007.5
20260505084403 61 309 2.0 5.0 0.00 0.00 0.00 1007.5
20260505083903 62 298 2.0 7.0 0.00 0.00 0.00 1007.5
20260505083403 62 323 2.0 7.0 0.00 0.00 0.00 1007.8
20260505082904 62 308 3.0 7.0 0.00 0.00 0.00 1007.1
20260505082403 62 319 1.0 9.0 0.00 0.00 0.00 1007.1
20260505081902 62 301 3.0 10.0 0.00 0.00 0.00 1007.5
20260505081403 63 300 5.0 10.0 0.00 0.00 0.00 1007.1
20260505080903 63 293 4.0 11.0 0.00 0.00 0.00 1007.8
20260505080445 64 290 7.0 12.0 0.00 0.00 0.00 1007.5
20260505075903 64 297 7.0 12.0 0.00 0.00 0.00 1006.8
20260505075425 65 293 6.0 18.0 0.00 0.00 0.00 1006.8
20260505074903 66 284 8.0 18.0 0.00 0.00 0.00 1007.1
20260505074424 66 287 7.0 15.0 0.00 0.00 0.00 1007.8
20260505073903 67 292 4.0 13.0 0.00 0.00 0.00 1007.1
20260505073403 67 268 5.0 13.0 0.00 0.00 0.00 1007.1
20260505072903 67 268 5.0 12.0 0.00 0.00 0.00 1007.1
20260505072403 68 213 3.0 12.0 0.00 0.00 0.00 1006.8
20260505070903 68 216 3.0 11.0 0.00 0.00 0.00 1006.8
20260505070403 68 208 4.0 11.0 0.00 0.00 0.00 1006.8
20260505065903 68 208 4.0 14.0 0.00 0.00 0.00 1006.1
20260505065403 68 195 5.0 14.0 0.00 0.00 0.00 1006.8
20260505064905 68 202 4.0 9.0 0.00 0.00 0.00 1006.5
20260505064403 68 210 2.0 9.0 0.00 0.00 0.00 1006.5
20260505063903 68 204 3.0 10.0 0.00 0.00 0.00 1006.5
20260505063404 68 219 4.0 10.0 0.00 0.00 0.00 1006.8
20260505062903 68 203 4.0 9.0 0.00 0.00 0.00 1006.5
20260505062403 68 200 4.0 10.0 0.00 0.00 0.00 1006.1
20260505061903 68 213 3.0 10.0 0.00 0.00 0.00 1006.5
20260505061403 68 198 5.0 10.0 0.00 0.00 0.00 1006.5
20260505060903 68 204 3.0 8.0 0.00 0.00 0.00 1006.1
20260505060424 68 200 3.0 7.0 0.00 0.00 0.00 1005.8
20260505055903 68 197 3.0 8.0 0.00 0.00 0.00 1005.5
20260505055403 68 212 4.0 8.0 0.00 0.00 0.00 1006.5
20260505054903 68 192 3.0 8.0 0.00 0.00 0.00 1005.8
20260505054403 68 207 4.0 8.0 0.00 0.00 0.00 1005.8
20260505053902 68 193 3.0 10.0 0.00 0.00 0.00 1005.5
20260505053403 68 197 4.0 10.0 0.00 0.00 0.00 1006.1
20260505052924 67 199 3.0 7.0 0.00 0.00 0.00 1005.5
20260505052403 68 195 4.0 7.0 0.00 0.00 0.00 1005.8
20260505051903 68 200 4.0 7.0 0.00 0.00 0.00 1005.8
20260505051403 68 200 4.0 10.0 0.00 0.00 0.00 1006.5
20260505050924 68 196 3.0 12.0 0.00 0.00 0.00 1005.8
20260505050403 68 196 5.0 12.0 0.00 0.00 0.00 1005.8
20260505041424 68 195 3.0 5.0 0.00 0.00 0.00 1006.5
20260505040925 68 184 3.0 5.0 0.00 0.00 0.00 1006.1
20260505040424 67 184 3.0 5.0 0.00 0.00 0.00 1006.8
20260505035903 67 180 2.0 5.0 0.00 0.00 0.00 1006.5
20260505035403 68 191 2.0 5.0 0.00 0.00 0.00 1006.5
20260505034903 68 186 3.0 6.0 0.00 0.00 0.00 1006.5
20260505034403 68 193 3.0 6.0 0.00 0.00 0.00 1006.8
20260505033903 68 186 3.0 5.0 0.00 0.00 0.00 1006.8
20260505033424 68 181 3.0 6.0 0.00 0.00 0.00 1006.1
20260505032903 68 199 2.0 6.0 0.00 0.00 0.00 1006.5
20260505032403 68 194 3.0 5.0 0.00 0.00 0.00 1006.5
20260505031924 68 193 2.0 5.0 0.00 0.00 0.00 1007.1
20260505031402 68 193 3.0 5.0 0.00 0.00 0.00 1007.1
20260505030903 68 184 3.0 6.0 0.00 0.00 0.00 1006.5
20260505030403 68 199 3.0 6.0 0.00 0.00 0.00 1007.1
20260505025904 68 198 3.0 5.0 0.00 0.00 0.00 1006.5
20260505025403 68 193 3.0 5.0 0.00 0.00 0.00 1006.1
20260505024903 68 196 2.0 5.0 0.00 0.00 0.00 1006.5
20260505024403 68 206 3.0 5.0 0.00 0.00 0.00 1006.8
20260505023902 68 186 2.0 4.0 0.00 0.00 0.00 1006.8
20260505023403 68 190 2.0 4.0 0.00 0.00 0.00 1006.5
20260505022904 68 197 2.0 4.0 0.00 0.00 0.00 1006.1
20260505022403 68 195 2.0 5.0 0.00 0.00 0.00 1006.5
20260505021903 68 198 3.0 5.0 0.00 0.00 0.00 1006.1
20260505021403 68 190 2.0 3.0 0.00 0.00 0.00 1005.5
20260505020903 68 184 2.0 4.0 0.00 0.00 0.00 1006.1
20260505020402 69 189 2.0 5.0 0.00 0.00 0.00 1006.1
20260505015903 69 194 2.0 6.0 0.00 0.00 0.00 1005.5
20260505015404 69 192 3.0 6.0 0.00 0.00 0.00 1005.8
20260505014903 69 182 2.0 3.0 0.00 0.00 0.00 1006.1
20260505014403 69 190 2.0 3.0 0.00 0.00 0.00 1006.1
20260505013903 69 196 2.0 4.0 0.00 0.00 0.00 1006.1
20260505013403 69 198 2.0 5.0 0.00 0.00 0.00 1006.1
20260505012903 69 193 2.0 5.0 0.00 0.00 0.00 1005.8
20260505012403 69 199 2.0 4.0 0.00 0.00 0.00 1005.5
20260505011903 70 198 2.0 5.0 0.00 0.00 0.00 1005.5
20260505011403 70 193 2.0 7.0 0.00 0.00 0.00 1005.5
20260505010903 70 201 3.0 7.0 0.00 0.00 0.00 1005.8
20260505010424 70 190 2.0 4.0 0.00 0.00 0.00 1005.5
20260505005903 70 193 3.0 7.0 0.00 0.00 0.00 1005.5
20260505005402 70 187 4.0 7.0 0.00 0.00 0.00 1005.8
20260505004903 71 198 3.0 9.0 0.00 0.00 0.00 1005.5
20260505004403 71 198 3.0 9.0 0.00 0.00 0.00 1005.5
20260505003903 71 199 4.0 8.0 0.00 0.00 0.00 1005.8
20260505003402 72 206 4.0 8.0 0.00 0.00 0.00 1005.8
20260505002903 72 198 3.0 8.0 0.00 0.00 0.00 1005.5
20260505002402 72 205 4.0 9.0 0.00 0.00 0.00 1005.8
20260505001904 72 196 3.0 10.0 0.00 0.00 0.00 1005.8